Location: *
(51.5000°N, 0.1100°W)
Time: 21:20:05
(UTC+00:00)

Cosmos 1825 - Pass Details

Date: 25 May 2024
Orbit: 439 x 443 km, 82.5° (Epoch: 16 June)

Event Time Altitude Azimuth Distance (km) Brightness Sun altitude
Exits shadow 02:54:10 - 178° (S) 2,098 4.9 -7.8°
Reaches altitude 10° 02:55:27 10° 175° (S) 1,565 4.2 -7.7°
Maximum altitude 02:58:48 57° 97° (E) 536 2.5 -7.3°
Drops below altitude 10° 03:02:11 10° 18° (NNE) 1,584 5.9 -7.0°
Sets 03:04:17 0° 14° (NNE) 2,462 6.9 -6.8°
